Flag for U.S.A. Weather past 2 weeks in Pittsburgh, Pennsylvania, U.S.A.

Now
55 °F

Fog.


Feels Like: 55 °F
Forecast: 54 / 75 °F
Wind: No wind

Location: Allegheny County Airport

Current Time: Oct 1, 2014 at 8:50:41 AM

Latest Report: Oct 1, 2014 at 7:53 AM


Visibility: 0 mi

Pressure: 30.01 "Hg

Humidity: 93%

Dew point: 53 °F

Location of PittsburghLocation

Historic Weather in Pittsburgh — Graph

°F

Pittsburgh temperature yesterday

Maximum temperature yesterday: 72 °F (at 11:53 AM)
Minimum temperature yesterday: 56 °F (at 7:53 AM)
Average temperature yesterday: 63 °F

Past Weeks' High & Low Weather Summary

 TemperatureHumidityPressure
High78 °F (Sep 20, 4:53 PM)93% (Sep 17, 7:59 AM)30.46 "Hg (Sep 17, 7:59 AM)
Low41 °F (Sep 23, 7:03 AM)31% (Sep 24, 3:53 PM)29.65 "Hg (Sep 21, 4:53 PM)
Average62 °F66%30.13 "Hg
* Reported Sep 16 6:53 AM — Oct 1 6:53 AM, Pittsburgh, Weather by CustomWeather, © 2014

Note: Actual official high and low records may vary slightly from our data, if they occured in-between our weather recording intervals... More about our weather records

Advertising

Pittsburgh weather history for previous 24 hours

 ConditionsComfort  
Time TempWeatherWind HumidityBarometerVisibility
6:53 AM
Oct 1
55 °FFog.No wind93%29.98 "Hg0 mi
5:53 AM56 °FFog.No wind90%29.97 "Hg0 mi
4:53 AM56 °FFog.7 mph90%29.96 "Hg0 mi
3:53 AM56 °FFog.3 mph90%29.96 "Hg0 mi
2:58 AM56 °FFog.3 mph90%29.96 "Hg0 mi
2:00 AM57 °FFog.3 mph90%29.96 "Hg2 mi
1:00 AM58 °FFog.No wind87%29.96 "Hg2 mi
11:53 PM
Sep 30
57 °FFog.3 mph90%29.96 "Hg5 mi
10:53 PM57 °FMostly cloudy.5 mph87%29.95 "Hg10 mi
9:53 PM61 °FMostly cloudy.6 mph81%29.95 "Hg10 mi
8:53 PM63 °FMostly cloudy.No wind73%29.93 "Hg10 mi
7:53 PM63 °FPassing clouds.3 mph73%29.92 "Hg10 mi
6:53 PM64 °FScattered clouds.6 mph68%29.90 "Hg10 mi
5:53 PM68 °FPartly sunny.8 mph59%29.90 "Hg10 mi
4:53 PM69 °FBroken clouds.6 mph59%29.89 "Hg10 mi
3:53 PM68 °FSunny.5 mph61%29.89 "Hg10 mi
2:53 PM63 °FLight rain. Partly sunny.No wind75%29.90 "Hg10 mi
1:53 PM67 °FPartly sunny.8 mph55%29.92 "Hg10 mi
12:53 PM72 °FScattered clouds.9 mph52%29.90 "Hg10 mi
11:53 AM72 °FSunny.8 mph53%29.90 "Hg10 mi
10:53 AM69 °FSunny.7 mph61%29.90 "Hg10 mi
9:53 AM64 °FSunny.5 mph78%29.91 "Hg7 mi
9:00 AM59 °FFog.8 mph90%29.91 "Hg1 mi
Weather by CustomWeather, © 2014

See weather overviewHow to use our weather pages